Previsão horária em Juhana

Hoje, 22 Junho, Terça-feira

Tempo Temperatura Precipitação Vento Pressão Humidade
00:00 +20°C° 0 mm 3 m/s 743 mmHg 89%
01:00 +20°C° 0 mm 3 m/s 743 mmHg 91%
02:00 +19°C° 0 mm 3 m/s 743 mmHg 93%
03:00 +19°C° 0 mm 3 m/s 743 mmHg 93%
04:00 +19°C° 0 mm 3 m/s 743 mmHg 94%
05:00 +19°C° 0 mm 3 m/s 743 mmHg 94%
06:00 +21°C° 0 mm 3 m/s 744 mmHg 88%
07:00 +22°C° 0 mm 4 m/s 744 mmHg 82%
08:00 +25°C° 0 mm 4 m/s 744 mmHg 76%
09:00 +26°C° 0 mm 4 m/s 744 mmHg 71%
10:00 +27°C° 0 mm 4 m/s 744 mmHg 67%
11:00 +29°C° 0 mm 4 m/s 744 mmHg 62%
12:00 +29°C° 0.1 mm 4 m/s 744 mmHg 60%
13:00 +30°C° 0.1 mm 4 m/s 744 mmHg 58%
14:00 +32°C° 0.1 mm 4 m/s 744 mmHg 55%
15:00 +32°C° 0.1 mm 4 m/s 744 mmHg 57%
16:00 +30°C° 0.1 mm 3 m/s 744 mmHg 59%
17:00 +30°C° 0.1 mm 3 m/s 744 mmHg 61%
18:00 +29°C° 0.1 mm 3 m/s 744 mmHg 66%
19:00 +28°C° 0.1 mm 3 m/s 744 mmHg 71%
20:00 +26°C° 0.1 mm 3 m/s 745 mmHg 76%
21:00 +25°C° 0.6 mm 3 m/s 745 mmHg 81%
22:00 +23°C° 0.6 mm 2 m/s 745 mmHg 86%
23:00 +20°C° 0.6 mm 2 m/s 746 mmHg 91%

Amanhã, 23 Junho, Quarta-feira

Tempo Temperatura Precipitação Vento Pressão Humidade
00:00 +21°C° 0.1 mm 1 m/s 746 mmHg 90%
01:00 +21°C° 0.1 mm 1 m/s 746 mmHg 89%
02:00 +21°C° 0.1 mm 1 m/s 746 mmHg 88%
03:00 +21°C° 0.2 mm 1 m/s 746 mmHg 89%
04:00 +21°C° 0.2 mm 1 m/s 746 mmHg 90%
05:00 +19°C° 0.2 mm 0 m/s 746 mmHg 91%
06:00 +22°C° 0.2 mm 1 m/s 746 mmHg 89%
07:00 +22°C° 0.2 mm 1 m/s 747 mmHg 88%
08:00 +23°C° 0.2 mm 1 m/s 747 mmHg 86%
09:00 +25°C° 0 mm 1 m/s 747 mmHg 81%
10:00 +26°C° 0 mm 1 m/s 748 mmHg 76%
11:00 +27°C° 0 mm 1 m/s 748 mmHg 71%
12:00 +28°C° 0 mm 1 m/s 748 mmHg 68%
13:00 +29°C° 0 mm 1 m/s 748 mmHg 64%
14:00 +30°C° 0 mm 1 m/s 748 mmHg 60%
15:00 +30°C° 0.3 mm 1 m/s 748 mmHg 61%
16:00 +30°C° 0.3 mm 1 m/s 748 mmHg 62%
17:00 +30°C° 0.3 mm 1 m/s 748 mmHg 63%
18:00 +28°C° 1.3 mm 2 m/s 748 mmHg 71%
19:00 +26°C° 1.3 mm 3 m/s 748 mmHg 78%
20:00 +25°C° 1.3 mm 3 m/s 748 mmHg 85%
21:00 +24°C° 0.8 mm 2 m/s 748 mmHg 85%
22:00 +23°C° 0.8 mm 1 m/s 748 mmHg 84%
23:00 +19°C° 0.8 mm 0 m/s 748 mmHg 84%

Depois de amanhã, 24 Junho, Quinta-feira

Tempo Temperatura Precipitação Vento Pressão Humidade
00:00 +21°C° 0.1 mm 1 m/s 748 mmHg 85%
01:00 +21°C° 0.1 mm 1 m/s 748 mmHg 87%
02:00 +20°C° 0.1 mm 1 m/s 748 mmHg 89%
03:00 +20°C° 0 mm 1 m/s 748 mmHg 91%
04:00 +20°C° 0 mm 1 m/s 748 mmHg 92%
05:00 +20°C° 0 mm 1 m/s 748 mmHg 93%
06:00 +21°C° 0 mm 1 m/s 748 mmHg 90%
07:00 +23°C° 0 mm 1 m/s 748 mmHg 87%
08:00 +24°C° 0 mm 1 m/s 748 mmHg 84%
09:00 +25°C° 0 mm 1 m/s 748 mmHg 78%
10:00 +27°C° 0 mm 1 m/s 748 mmHg 73%
11:00 +28°C° 0 mm 1 m/s 748 mmHg 68%
12:00 +29°C° 0.2 mm 1 m/s 748 mmHg 65%
13:00 +30°C° 0.2 mm 1 m/s 748 mmHg 62%
14:00 +30°C° 0.2 mm 1 m/s 748 mmHg 59%
15:00 +30°C° 0.2 mm 1 m/s 748 mmHg 60%
16:00 +30°C° 0.2 mm 1 m/s 748 mmHg 60%
17:00 +30°C° 0.2 mm 1 m/s 747 mmHg 60%
18:00 +29°C° 0.7 mm 1 m/s 747 mmHg 66%
19:00 +28°C° 0.7 mm 2 m/s 747 mmHg 73%
20:00 +26°C° 0.7 mm 2 m/s 747 mmHg 79%
21:00 +25°C° 0 mm 2 m/s 747 mmHg 83%
22:00 +24°C° 0 mm 2 m/s 747 mmHg 87%
23:00 +23°C° 0 mm 2 m/s 747 mmHg 90%

25 Junho, Sexta-feira

Tempo Temperatura Precipitação Vento Pressão Humidade
00:00 +21°C° 0 mm 3 m/s 746 mmHg 91%
01:00 +21°C° 0 mm 3 m/s 746 mmHg 92%
02:00 +21°C° 0 mm 3 m/s 746 mmHg 94%
03:00 +21°C° 0.4 mm 3 m/s 746 mmHg 94%
04:00 +20°C° 0.4 mm 4 m/s 745 mmHg 94%
05:00 +20°C° 0.4 mm 4 m/s 745 mmHg 94%
06:00 +21°C° 1 mm 4 m/s 745 mmHg 92%
07:00 +22°C° 1 mm 4 m/s 745 mmHg 91%
08:00 +23°C° 1 mm 4 m/s 744 mmHg 89%
09:00 +26°C° 0 mm 5 m/s 744 mmHg 82%
10:00 +28°C° 0 mm 5 m/s 744 mmHg 75%
11:00 +29°C° 0 mm 5 m/s 744 mmHg 68%
12:00 +29°C° 0.2 mm 5 m/s 744 mmHg 67%
13:00 +30°C° 0.2 mm 5 m/s 744 mmHg 67%
14:00 +30°C° 0.2 mm 5 m/s 744 mmHg 66%
15:00 +29°C° 0.2 mm 5 m/s 744 mmHg 68%
16:00 +28°C° 0.2 mm 5 m/s 745 mmHg 70%
17:00 +28°C° 0.2 mm 6 m/s 745 mmHg 71%
18:00 +26°C° 0 mm 5 m/s 745 mmHg 75%
19:00 +23°C° 0 mm 5 m/s 745 mmHg 78%
20:00 +22°C° 0 mm 5 m/s 746 mmHg 81%
21:00 +20°C° 0 mm 5 m/s 746 mmHg 85%
22:00 +18°C° 0 mm 4 m/s 746 mmHg 88%
23:00 +17°C° 0 mm 4 m/s 746 mmHg 92%

26 Junho, Sábado

Tempo Temperatura Precipitação Vento Pressão Humidade
00:00 +15°C° 0 mm 4 m/s 747 mmHg 92%
01:00 +16°C° 0 mm 3 m/s 747 mmHg 93%
02:00 +14°C° 0 mm 3 m/s 747 mmHg 93%
03:00 +14°C° 0 mm 3 m/s 747 mmHg 94%
04:00 +14°C° 0 mm 3 m/s 747 mmHg 94%
05:00 +14°C° 0 mm 2 m/s 747 mmHg 95%
06:00 +16°C° 0 mm 3 m/s 748 mmHg 88%
07:00 +18°C° 0 mm 3 m/s 748 mmHg 80%
08:00 +19°C° 0 mm 4 m/s 748 mmHg 73%
09:00 +20°C° 0 mm 4 m/s 748 mmHg 69%
10:00 +22°C° 0 mm 4 m/s 748 mmHg 66%
11:00 +23°C° 0 mm 5 m/s 748 mmHg 62%
12:00 +25°C° 0 mm 5 m/s 748 mmHg 59%
13:00 +25°C° 0 mm 4 m/s 748 mmHg 57%
14:00 +26°C° 0 mm 4 m/s 748 mmHg 55%
15:00 +25°C° 0 mm 4 m/s 748 mmHg 59%
16:00 +25°C° 0 mm 3 m/s 748 mmHg 63%
17:00 +24°C° 0 mm 3 m/s 748 mmHg 67%
18:00 +23°C° 0 mm 2 m/s 748 mmHg 70%
19:00 +21°C° 0 mm 2 m/s 748 mmHg 74%
20:00 +21°C° 0 mm 2 m/s 748 mmHg 77%
21:00 +20°C° 0 mm 2 m/s 748 mmHg 81%
22:00 +19°C° 0 mm 2 m/s 748 mmHg 84%
23:00 +17°C° 0 mm 2 m/s 748 mmHg 88%

27 Junho, Domingo

Tempo Temperatura Precipitação Vento Pressão Humidade
00:00 +18°C° 0 mm 1 m/s 748 mmHg 88%
01:00 +18°C° 0 mm 1 m/s 748 mmHg 89%
02:00 +16°C° 0 mm 1 m/s 749 mmHg 89%
03:00 +16°C° 0 mm 1 m/s 749 mmHg 89%
04:00 +16°C° 0 mm 1 m/s 748 mmHg 89%
05:00 +16°C° 0 mm 1 m/s 748 mmHg 89%
06:00 +19°C° 0 mm 1 m/s 749 mmHg 85%
07:00 +20°C° 0 mm 1 m/s 749 mmHg 80%
08:00 +21°C° 0 mm 1 m/s 749 mmHg 76%
09:00 +21°C° 0 mm 2 m/s 749 mmHg 74%
10:00 +21°C° 0 mm 2 m/s 749 mmHg 72%
11:00 +23°C° 0 mm 2 m/s 749 mmHg 70%
12:00 +21°C° 0 mm 2 m/s 749 mmHg 73%
13:00 +21°C° 0 mm 2 m/s 749 mmHg 76%
14:00 +20°C° 0 mm 2 m/s 749 mmHg 80%
15:00 +20°C° 0 mm 2 m/s 749 mmHg 81%
16:00 +20°C° 0 mm 2 m/s 749 mmHg 82%
17:00 +20°C° 0 mm 2 m/s 749 mmHg 83%
18:00 +20°C° 0 mm 2 m/s 749 mmHg 83%
19:00 +20°C° 0 mm 2 m/s 749 mmHg 84%
20:00 +20°C° 0 mm 1 m/s 749 mmHg 84%
21:00 +19°C° 0 mm 2 m/s 749 mmHg 85%
22:00 +18°C° 0 mm 2 m/s 749 mmHg 86%
23:00 +18°C° 0 mm 2 m/s 749 mmHg 87%
Mostrar mais

Necessitamos do seu Consentimento

A Meteoprog e os seus Fornecedores de Serviços podem armazenar e aceder a dados pessoais como cookies, identificadores do dispositivo ou outras tecnologias semelhantes existentes no seu dispositivo e processar estes dados para personalizar conteúdos e anúncios, assim como funcionalidades nas redes sociais e análise de tráfego.

  • Armazenar e/ou aceder a informações no seu dispositivo

    Os cookies, identificadores do dispositivo ou outras informações podem ser armazenados ou acedidos no seu dispositivo, para os fins acima indicados.

  • Anúncios e conteúdos personalizados, medição de anúncios e conteúdos, dados sobre o público-alvo e desenvolvimento de produtos

    Os anúncios e os conteúdos podem ser personalizados com base num perfil. Podem ser adicionados dados adicionais para uma maior personalização dos anúncios e dos conteúdos. A eficácia dos anúncios e dos conteúdos pode ser medida. Podem ser obtidas informações sobre o público que visualizou os anúncios e os conteúdos. Estes dados podem ser usados para desenvolver ou melhorar sistemas, softwares ou a experiência do utilizador.

Ao clicar em "Eu concordo”, permitirá o uso de cookies, identificadores do dispositivo e web beacons mencionados ou outras tecnologias semelhantes. As configurações do navegador do seu dispositivo podem ser alteradas.

Para certos fins, podem ser invocados interesses legítimos ao invés de consentimento. Pode ler mais informação sobre este assunto na nossa Política de Privacidade e Cookies.